Location: Bodham
(52.9000°N, 1.1667°E)
Time: 14:44:50
(UTC+00:00)

Cosmos 2112 Rocket - Pass Details

Date: 19 October 2025
Orbit: 753 x 782 km, 74.0° (Epoch: 13 November)

Event Time Altitude Azimuth Distance (km) Brightness Sun altitude
Rises 18:45:34 0° 172° (S) 3,255 7.1 -18.0°
Reaches altitude 10° 18:48:10 10° 163° (SSE) 2,329 6.3 -18.4°
Enters shadow 18:50:19 21° 146° (SE) 1,681 5.4 -18.7°
